Left ArrowRight Arrow

Hourly Observations for April 4, 2020

Temp ( °F °C ) Dew Point ( °F °C ) Humidity (%) Winds ( mph kmh ) Pressure ( in mb ) Visibility ( mi km ) Precip ( " mm )
12:56 am 00:56 Clear 21 -6.1 16 -8.9 81 81 S 6 9 30.07 1018 10 16 0.00 0.00
1:56 am 01:56 Clear 21 -6.1 16 -8.9 81 81 S 6 9 30.04 1017 10 16 0.00 0.00
2:56 am 02:56 Clear 20 -6.7 16 -8.9 85 85 SE 3 6 30.01 1016 10 16 0.00 0.00
3:56 am 03:56 Clear 19 -7.2 16 -8.9 88 88 ESE 5 7 29.99 1016 10 16 0.00 0.00
4:56 am 04:56 Clear 18 -7.8 15 -9.4 88 88 E 6 9 29.97 1015 10 16 0.00 0.00
5:56 am 05:56 Clear 18 -7.8 15 -9.4 88 88 ENE 5 7 29.96 1014 10 16 0.00 0.00
6:56 am 06:56 Sunny 18 -7.8 15 -9.4 88 88 E 5 7 29.95 1014 10 16 0.00 0.00
7:56 am 07:56 Sunny 24 -4.4 18 -7.8 77 77 SE 3 6 29.94 1014 10 16 0.00 0.00
8:56 am 08:56 Sunny 28 -2.2 20 -6.7 72 72 SW 7 11 29.94 1014 10 16 0.00 0.00
9:56 am 09:56 Sunny 32 0 22 -5.6 66 66 SSW 6 9 29.92 1013 10 16 0.00 0.00
10:56 am 10:56 Sunny 37 2.8 24 -4.4 59 59 SSW 12 19 29.91 1013 10 16 0.00 0.00
11:56 am 11:56 Sunny 40 4.4 25 -3.9 55 55 SSW 7 11 29.91 1013 10 16 0.00 0.00
12:56 pm 12:56 Mostly Sunny 47 8.3 26 -3.3 44 44 SW 10 17 29.89 1012 10 16 0.00 0.00
1:56 pm 13:56 Mostly Cloudy 47 8.3 27 -2.8 46 46 W 14 22 29.90 1013 10 16 0.00 0.00
2:56 pm 14:56 Partly Cloudy 46 7.8 27 -2.8 47 47 WNW 16 26 29.91 1013 10 16 0.00 0.00
3:56 pm 15:56 Partly Cloudy 45 7.2 25 -3.9 46 46 WNW 10 17 29.93 1014 10 16 0.00 0.00
4:56 pm 16:56 Partly Cloudy 44 6.7 24 -4.4 45 45 W 9 15 29.94 1014 10 16 0.00 0.00
5:56 pm 17:56 Sunny 43 6.1 23 -5 45 45 NNW 9 15 29.95 1014 10 16 0.00 0.00
6:56 pm 18:56 Sunny 40 4.4 24 -4.4 53 53 NNW 7 11 29.97 1015 10 16 0.00 0.00
7:56 pm 19:56 Clear 32 0 24 -4.4 73 73 N 9 15 29.99 1016 10 16 0.00 0.00
8:56 pm 20:56 Clear 29 -1.7 23 -5 78 78 NNW 7 11 30.00 1016 10 16 0.00 0.00
9:56 pm 21:56 Clear 28 -2.2 23 -5 81 81 N 10 17 29.99 1016 10 16 0.00 0.00
10:56 pm 22:56 Clear 28 -2.2 23 -5 81 81 Calm 29.99 1016 10 16 0.00 0.00
11:56 pm 23:56 Clear 26 -3.3 23 -5 88 88 Calm 29.99 1016 10 16 0.00 0.00

Powered by Vaisala Xweather